{"data":{"norad_id":65862,"intl_designator":"2025-223J","name":"STARLINK-35386","alt_names":[],"object_type":"PAYLOAD","status":"ACTIVE","operator":null,"country":"US","launch_date":"2025-10-03","launch_site_code":"AFWTR","launch_vehicle":null,"mission":null,"orbit_class":"UNKNOWN","rcs_meters":null,"size_class":null,"mass_kg":null,"dimensions":null,"purposes":["comms"],"wikipedia_slug":null,"has_3d_model":false,"image_url":null,"decayed_at":null,"tle_current":{"epoch":"2026-05-25T04:00:03.998880Z","epoch_age_seconds":63801,"freshness":"FRESH","line1":"1 65862U 25223J   26145.16671295  .00000673  00000+0  31075-4 0  9991","line2":"2 65862  53.1585 299.1805 0001390  89.0127 188.9348 15.34386017  5857","mean_motion":15.34386017,"eccentricity":0.000139,"inclination_deg":53.1585,"raan_deg":299.1805,"arg_perigee_deg":89.0127,"mean_anomaly_deg":188.9348,"bstar":3.1075e-5,"rev_number":585,"period_min":93.848613324531,"perigee_km":461.79391837518,"apogee_km":463.69568351584,"semimajor_km":6840.8818009455,"source":"CELESTRAK","updated_at":"2026-05-25T13:38:20.972781Z"}}}